This is the latest recevied weather packets stored in our database for station/object KJ7IVE-13. If no packets are shown the sender has not sent any weather packets the latest 10 day(s).
| Time | Temp. | Humidity | Pressure | Rain* | Wind** | Luminosity | Snow |
|---|---|---|---|---|---|---|---|
| 1777793669 | 11.11° C | 10% | 1017.8 hPa | 0 mm | - | 0 W/m² | - |
| 1777793367 | 12.78° C | 10% | 1017.6 hPa | 0 mm | - | 0 W/m² | - |
| 1777793065 | 12.78° C | 10% | 1017.5 hPa | 0 mm | - | 0 W/m² | - |
| 1777792762 | 12.78° C | 10% | 1017.7 hPa | 0 mm | - | 0 W/m² | - |
| 1777792459 | 12.22° C | 10% | 1017.6 hPa | 0 mm | - | 0 W/m² | - |
| 1777792155 | 12.78° C | 10% | 1017.6 hPa | 0 mm | - | 0 W/m² | - |
| 1777791852 | 13.33° C | 10% | 1017.7 hPa | 0 mm | - | 0 W/m² | - |
| 1777791550 | 12.78° C | 10% | 1017.4 hPa | 0 mm | - | 0 W/m² | - |
| 1777791247 | 12.78° C | 10% | 1017.6 hPa | 0 mm | - | 0 W/m² | - |
| 1777790945 | 12.22° C | 10% | 1017.6 hPa | 0 mm | - | 0 W/m² | - |
| 1777790339 | 12.22° C | 10% | 1017.5 hPa | 0 mm | - | 0 W/m² | - |
| 1777790036 | 12.78° C | 10% | 1017.4 hPa | 0 mm | - | 0 W/m² | - |
| 1777789735 | 12.78° C | 10% | 1017.4 hPa | 0 mm | - | 0 W/m² | - |
| 1777789433 | 12.78° C | 10% | 1017.4 hPa | 0 mm | - | 0 W/m² | - |
| 1777789131 | 12.78° C | 10% | 1017.3 hPa | 0 mm | - | 0 W/m² | - |
| 1777788827 | 12.78° C | 10% | 1017.3 hPa | 0 mm | - | 0 W/m² | - |
| 1777788523 | 13.33° C | 10% | 1017 hPa | 0 mm | - | 0 W/m² | - |
| 1777788218 | 13.33° C | 10% | 1017.3 hPa | 0 mm | - | 0 W/m² | - |
| 1777787914 | 13.89° C | 10% | 1017.5 hPa | 0 mm | - | 0 W/m² | - |
| 1777787604 | 13.89° C | 10% | 1017.4 hPa | 0 mm | - | 0 W/m² | - |
| 1777787300 | 13.89° C | 10% | 1017.5 hPa | 0 mm | - | 0 W/m² | - |
| 1777786996 | 13.89° C | 10% | 1017.4 hPa | 0 mm | - | 0 W/m² | - |
| 1777786694 | 13.89° C | 10% | 1017.4 hPa | 0 mm | - | 0 W/m² | - |
| 1777786393 | 13.89° C | 10% | 1017.4 hPa | 0 mm | - | 0 W/m² | - |
| 1777786088 | 13.89° C | 10% | 1017.4 hPa | 0 mm | - | 0 W/m² | - |
* Rain latest hour (hover to see other rain measurements)
** Current wind speed in m/s (hover to see current wind gust speed)